Zurück zum Katalog

SKYNET 4B

AktivMilitärGEO
NORAD 19687·PAYLOAD·🇬🇧 United Kingdom

Gestartet Dec 11, 1988 von Guiana Space Centre

Loading…

TLE

AktuellSource: Space-Track

Epoche: Sep 14, 2026, 00:03 UTC

1 19687U 88109A   26257.00242309 -.00000213  00000-0  00000-0 0  9996
2 19687  13.0191 336.2687 0006137 277.5014  87.4525  0.99676566119057

Verfolge SKYNET 4B in Echtzeit mit AllMySat

Download on the App Store